Volver al catálogo

STARLINK-35638

ActivoComunicacionesVLEO
NORAD 66169·PAYLOAD·🇺🇸 United States

Lanzado Oct 25, 2025 desde Cape Canaveral Space Force Station

Loading…

Próximos Pases (próximas 24 horas)

TLE

ActualizadoSource: CelesTrak SupGP

Época: Sep 14, 2026, 20:54 UTC

1 66169C 25240Z   26257.87131944  .00053739  00000+0  15881-2 0  2578
2 66169  53.1580 261.8896 0001273  91.9035 273.0774 15.34357207    10

Sigue STARLINK-35638 en tiempo real con AllMySat

Download on the App Store